When you browse on this site, cookies collect data to enhance your experience and personalize the content and advertising you see.
Visit our Privacy Policy to learn more. By continuing to use the site, you agree to this use of cookies and data.
  • In Romania
  • List of Countries
  • For 7 days
  • Water Temperature
  • Satellite Maps
  • Weather Map
  • Weather Widgets
  • user-avatar
    Login

    Hourly Weather Callao

    Today, 20 July, Saturday

    Time Temperature Precipitation Wind Pressure Humidity
    00:00 +9°C° 0 mm 2 mps 540 mmHg 59%
    01:00 +8°C° 0 mm 3 mps 539 mmHg 58%
    02:00 +8°C° 0 mm 3 mps 539 mmHg 58%
    03:00 +8°C° 0 mm 2 mps 539 mmHg 57%
    04:00 +8°C° 0 mm 2 mps 539 mmHg 56%
    05:00 +8°C° 0 mm 3 mps 539 mmHg 54%
    06:00 +8°C° 0 mm 3 mps 539 mmHg 52%
    07:00 +9°C° 0 mm 3 mps 540 mmHg 50%
    08:00 +11°C° 0 mm 3 mps 541 mmHg 44%
    09:00 +13°C° 0 mm 3 mps 542 mmHg 38%
    10:00 +17°C° 0 mm 2 mps 544 mmHg 32%
    11:00 +17°C° 0 mm 3 mps 543 mmHg 34%
    12:00 +17°C° 0 mm 3 mps 543 mmHg 35%
    13:00 +17°C° 0 mm 3 mps 543 mmHg 36%
    14:00 +17°C° 0 mm 3 mps 542 mmHg 40%
    15:00 +16°C° 0 mm 3 mps 541 mmHg 44%
    16:00 +14°C° 0 mm 3 mps 541 mmHg 47%
    17:00 +14°C° 0 mm 2 mps 540 mmHg 53%
    18:00 +12°C° 0 mm 1 mps 540 mmHg 60%
    19:00 +10°C° 0 mm 0 mps 539 mmHg 66%
    20:00 +9°C° 0 mm 0 mps 539 mmHg 66%
    21:00 +9°C° 0 mm 0 mps 540 mmHg 67%
    22:00 +10°C° 0 mm 1 mps 540 mmHg 67%
    23:00 +9°C° 0 mm 1 mps 540 mmHg 66%

    Tomorrow, 21 July, Sunday

    Time Temperature Precipitation Wind Pressure Humidity
    00:00 +9°C° 0 mm 1 mps 539 mmHg 65%
    01:00 +9°C° 0 mm 1 mps 539 mmHg 64%
    02:00 +9°C° 0 mm 1 mps 539 mmHg 64%
    03:00 +8°C° 0 mm 1 mps 538 mmHg 64%
    04:00 +7°C° 0 mm 2 mps 538 mmHg 64%
    05:00 +7°C° 0 mm 2 mps 538 mmHg 62%
    06:00 +8°C° 0 mm 2 mps 539 mmHg 59%
    07:00 +8°C° 0 mm 2 mps 539 mmHg 57%
    08:00 +10°C° 0 mm 2 mps 541 mmHg 51%
    09:00 +13°C° 0 mm 2 mps 542 mmHg 46%
    10:00 +15°C° 0 mm 2 mps 543 mmHg 40%
    11:00 +14°C° 0 mm 3 mps 543 mmHg 41%
    12:00 +16°C° 0 mm 3 mps 543 mmHg 42%
    13:00 +15°C° 0 mm 4 mps 542 mmHg 43%
    14:00 +14°C° 0.1 mm 3 mps 542 mmHg 46%
    15:00 +14°C° 0.1 mm 3 mps 541 mmHg 49%
    16:00 +14°C° 0.1 mm 3 mps 540 mmHg 52%
    17:00 +13°C° 0 mm 2 mps 540 mmHg 59%
    18:00 +12°C° 0 mm 1 mps 540 mmHg 65%
    19:00 +9°C° 0 mm 0 mps 539 mmHg 71%
    20:00 +9°C° 0 mm 0 mps 539 mmHg 71%
    21:00 +9°C° 0 mm 0 mps 540 mmHg 71%
    22:00 +8°C° 0 mm 0 mps 540 mmHg 71%
    23:00 +8°C° 0 mm 0 mps 539 mmHg 72%

    Day after tomorrow, 22 July, Monday

    Time Temperature Precipitation Wind Pressure Humidity
    00:00 +8°C° 0 mm 0 mps 539 mmHg 72%
    01:00 +8°C° 0 mm 0 mps 539 mmHg 72%
    02:00 +7°C° 0 mm 0 mps 539 mmHg 72%
    03:00 +7°C° 0 mm 0 mps 538 mmHg 72%
    04:00 +7°C° 0 mm 0 mps 538 mmHg 72%
    05:00 +8°C° 0 mm 1 mps 539 mmHg 69%
    06:00 +9°C° 0 mm 1 mps 539 mmHg 67%
    07:00 +9°C° 0 mm 1 mps 540 mmHg 64%
    08:00 +11°C° 0 mm 1 mps 541 mmHg 58%
    09:00 +13°C° 0 mm 2 mps 542 mmHg 52%
    10:00 +14°C° 0 mm 3 mps 543 mmHg 45%
    11:00 +14°C° 0 mm 3 mps 543 mmHg 46%
    12:00 +14°C° 0 mm 3 mps 543 mmHg 47%
    13:00 +15°C° 0 mm 4 mps 543 mmHg 47%
    14:00 +14°C° 0.1 mm 3 mps 542 mmHg 50%
    15:00 +13°C° 0.1 mm 3 mps 541 mmHg 53%
    16:00 +13°C° 0.1 mm 3 mps 541 mmHg 56%
    17:00 +13°C° 0 mm 2 mps 540 mmHg 62%
    18:00 +11°C° 0 mm 1 mps 540 mmHg 68%
    19:00 +9°C° 0 mm 0 mps 540 mmHg 74%
    20:00 +9°C° 0 mm 0 mps 540 mmHg 73%
    21:00 +8°C° 0 mm 0 mps 540 mmHg 72%
    22:00 +8°C° 0 mm 0 mps 540 mmHg 71%
    23:00 +8°C° 0 mm 0 mps 540 mmHg 72%

    23 July, Tuesday

    Time Temperature Precipitation Wind Pressure Humidity
    00:00 +7°C° 0 mm 0 mps 539 mmHg 72%
    01:00 +7°C° 0 mm 0 mps 539 mmHg 73%
    02:00 +7°C° 0 mm 0 mps 539 mmHg 73%
    03:00 +7°C° 0 mm 0 mps 538 mmHg 73%
    04:00 +6°C° 0 mm 0 mps 538 mmHg 73%
    05:00 +7°C° 0 mm 0 mps 538 mmHg 70%
    06:00 +8°C° 0 mm 1 mps 539 mmHg 68%
    07:00 +9°C° 0 mm 1 mps 539 mmHg 65%
    08:00 +11°C° 0 mm 1 mps 541 mmHg 58%
    09:00 +12°C° 0 mm 2 mps 542 mmHg 51%
    10:00 +13°C° 0 mm 3 mps 543 mmHg 44%
    11:00 +14°C° 0 mm 3 mps 543 mmHg 45%
    12:00 +14°C° 0 mm 3 mps 543 mmHg 45%
    13:00 +14°C° 0 mm 4 mps 542 mmHg 45%
    14:00 +14°C° 0 mm 3 mps 542 mmHg 48%
    15:00 +13°C° 0 mm 3 mps 541 mmHg 51%
    16:00 +13°C° 0 mm 3 mps 541 mmHg 54%
    17:00 +12°C° 0 mm 2 mps 540 mmHg 58%
    18:00 +11°C° 0 mm 1 mps 540 mmHg 63%
    19:00 +9°C° 0 mm 0 mps 540 mmHg 67%
    20:00 +8°C° 0 mm 0 mps 540 mmHg 67%
    21:00 +8°C° 0 mm 0 mps 540 mmHg 68%
    22:00 +8°C° 0 mm 0 mps 540 mmHg 68%
    23:00 +7°C° 0 mm 0 mps 539 mmHg 68%

    24 July, Wednesday

    Time Temperature Precipitation Wind Pressure Humidity
    00:00 +7°C° 0 mm 0 mps 539 mmHg 68%
    01:00 +7°C° 0 mm 0 mps 539 mmHg 68%
    02:00 +6°C° 0 mm 0 mps 538 mmHg 68%
    03:00 +6°C° 0 mm 0 mps 538 mmHg 69%
    04:00 +6°C° 0 mm 0 mps 537 mmHg 69%
    05:00 +6°C° 0 mm 0 mps 538 mmHg 67%
    06:00 +7°C° 0 mm 0 mps 539 mmHg 64%
    07:00 +7°C° 0 mm 0 mps 539 mmHg 62%
    08:00 +10°C° 0 mm 1 mps 541 mmHg 56%
    09:00 +12°C° 0 mm 2 mps 542 mmHg 49%
    10:00 +14°C° 0 mm 2 mps 543 mmHg 43%
    11:00 +14°C° 0 mm 3 mps 543 mmHg 42%
    12:00 +14°C° 0 mm 3 mps 543 mmHg 41%
    13:00 +15°C° 0 mm 4 mps 542 mmHg 41%
    14:00 +14°C° 0 mm 4 mps 542 mmHg 44%
    15:00 +13°C° 0 mm 3 mps 541 mmHg 47%
    16:00 +13°C° 0 mm 3 mps 541 mmHg 50%
    17:00 +12°C° 0 mm 2 mps 540 mmHg 56%
    18:00 +11°C° 0 mm 1 mps 540 mmHg 61%
    19:00 +9°C° 0 mm 0 mps 539 mmHg 66%
    20:00 +8°C° 0 mm 0 mps 539 mmHg 65%
    21:00 +8°C° 0 mm 0 mps 539 mmHg 65%
    22:00 +9°C° 0 mm 1 mps 539 mmHg 64%
    23:00 +7°C° 0 mm 0 mps 539 mmHg 65%

    25 July, Thursday

    Time Temperature Precipitation Wind Pressure Humidity
    00:00 +7°C° 0 mm 0 mps 539 mmHg 66%
    01:00 +7°C° 0 mm 0 mps 538 mmHg 66%
    02:00 +6°C° 0 mm 0 mps 538 mmHg 67%
    03:00 +6°C° 0 mm 0 mps 538 mmHg 68%
    04:00 +6°C° 0 mm 0 mps 538 mmHg 69%
    05:00 +6°C° 0 mm 0 mps 538 mmHg 67%
    06:00 +7°C° 0 mm 0 mps 539 mmHg 66%
    07:00 +7°C° 0 mm 0 mps 539 mmHg 65%
    08:00 +10°C° 0 mm 1 mps 541 mmHg 58%
    09:00 +12°C° 0 mm 2 mps 542 mmHg 50%
    10:00 +13°C° 0 mm 3 mps 543 mmHg 43%
    11:00 +13°C° 0 mm 3 mps 543 mmHg 43%
    12:00 +14°C° 0 mm 3 mps 543 mmHg 43%
    13:00 +14°C° 0 mm 4 mps 542 mmHg 44%
    14:00 +14°C° 0 mm 4 mps 542 mmHg 45%
    15:00 +13°C° 0 mm 3 mps 542 mmHg 47%
    16:00 +13°C° 0 mm 3 mps 541 mmHg 49%
    17:00 +13°C° 0 mm 2 mps 540 mmHg 55%
    18:00 +11°C° 0 mm 1 mps 540 mmHg 60%
    19:00 +9°C° 0 mm 0 mps 539 mmHg 66%
    20:00 +8°C° 0 mm 0 mps 539 mmHg 67%
    21:00 +8°C° 0 mm 0 mps 539 mmHg 67%
    22:00 +8°C° 0 mm 0 mps 539 mmHg 67%
    23:00 +8°C° 0 mm 0 mps 539 mmHg 67%
    Show more